Location: Unspecified
(0.0000°N, 0.0000°E)
Time: 01:35:07
(UTC+00:00)

Tiros 1 - Visible Passes

Search period start: 23 August 2014 00:00
Search period end: 02 September 2014 00:00
Orbit: 633 x 667 km, 48.4° (Epoch: 22 August)

Date Brightness Start Highest point End Pass type
(mag) Time Alt. Az. Time Alt. Az. Time Alt. Az.
23 Aug 7.8 18:50:52 10° SW 18:55:36 58° NW 19:00:18 10° NNE visible
24 Aug 9.9 05:23:34 10° N 05:26:56 20° NE 05:30:19 10° E visible
24 Aug 10.0 19:19:32 10° W 19:22:43 18° NW 19:25:54 10° N visible
26 Aug 9.8 04:35:50 10° N 04:39:02 19° NE 04:42:14 10° E visible
26 Aug 10.0 18:31:25 10° W 18:34:48 19° NW 18:38:09 10° N visible
27 Aug 7.5 05:01:34 10° NNW 05:06:08 64° NE 05:10:43 10° SE visible
28 Aug 9.7 03:48:59 13° NNE 03:51:07 17° NE 03:54:09 10° E visible
28 Aug 7.8 05:29:00 10° WNW 05:33:12 35° SW 05:37:26 10° SSE visible
29 Aug 7.6 04:17:11 46° N 04:18:14 59° NE 04:22:47 10° SE visible
30 Aug 7.6 04:45:04 37° WSW 04:45:18 38° SW 04:49:36 10° SSE visible
31 Aug 10.0 03:34:47 10° SE 03:34:47 10° SE 03:34:50 10° SE visible
31 Aug 9.1 05:12:37 11° SW 05:12:37 11° SW 05:13:56 10° SSW visible
